ANA761 RJOO-ROAH

Flight info

Callsign ANA761
Flight time N/A
Altitude 40000
Route TIGER MAIKO Y75 ONC Y525 IHEYA
Aircraft B77W/H-SDE1E2E3FGHIJ2J3J4J5M1RWXY/LB1D1

Departure

Time N/A
Airport Osaka Itami International Airport (RJOO)

Arrival

Time 2026-04-23 14:59
Airport Naha International Airport (ROAH)
Time Latitude Longitude Altitude Speed Heading
2026-04-23 14:51 26.26893 127.85783 8451 ft 286 kts 208°
2026-04-23 14:51 26.25128 127.84882 8067 ft 274 kts 209°
2026-04-23 14:51 26.23430 127.84016 7695 ft 264 kts 209°
2026-04-23 14:52 26.21796 127.83182 7351 ft 257 kts 209°
2026-04-23 14:52 26.20160 127.82345 7012 ft 260 kts 209°
2026-04-23 14:52 26.18513 127.81504 6612 ft 260 kts 208°
2026-04-23 14:52 26.16887 127.80676 6253 ft 258 kts 209°
2026-04-23 14:53 26.15272 127.79854 5900 ft 256 kts 209°
2026-04-23 14:53 26.13651 127.79028 5539 ft 254 kts 208°
2026-04-23 14:53 26.12116 127.78246 5206 ft 251 kts 208°
2026-04-23 14:53 26.10569 127.77460 4823 ft 249 kts 208°
2026-04-23 14:54 26.08994 127.76659 4396 ft 244 kts 208°
2026-04-23 14:54 26.07462 127.75879 3919 ft 242 kts 208°
2026-04-23 14:54 26.06090 127.74877 3396 ft 238 kts 229°
2026-04-23 14:54 26.05257 127.73316 2825 ft 237 kts 255°
2026-04-23 14:55 26.05065 127.72131 2500 ft 237 kts 264°
2026-04-23 14:55 26.04923 127.69705 2034 ft 235 kts 267°
2026-04-23 14:55 26.04854 127.67959 1976 ft 224 kts 268°
2026-04-23 14:55 26.04929 127.66318 1955 ft 212 kts 285°
2026-04-23 14:56 26.05682 127.64957 1957 ft 208 kts 313°
2026-04-23 14:56 26.06931 127.64152 1847 ft 206 kts 339°
2026-04-23 14:56 26.08250 127.63868 1663 ft 198 kts 350°
2026-04-23 14:56 26.09158 127.63778 1548 ft 191 kts 353°
2026-04-23 14:57 26.10757 127.63690 1529 ft 179 kts 354°
2026-04-23 14:57 26.11981 127.63632 1536 ft 175 kts 352°
2026-04-23 14:57 26.13193 127.63543 1262 ft 176 kts 352°
2026-04-23 14:57 26.14323 127.63474 934 ft 172 kts 357°
2026-04-23 14:58 26.15510 127.63482 547 ft 169 kts 355°
2026-04-23 14:58 26.16573 127.63406 325 ft 151 kts 355°
2026-04-23 14:58 26.17605 127.63359 100 ft 150 kts 356°
2026-04-23 14:58 26.18582 127.63323 20 ft 131 kts 358°
2026-04-23 14:59 26.19387 127.63284 18 ft 100 kts 357°
2026-04-23 14:59 26.19967 127.63256 18 ft 50 kts 358°
2026-04-23 14:59 26.20191 127.63246 18 ft 21 kts 358°
2026-04-23 14:59 26.20275 127.63252 18 ft 7 kts 38°
2026-04-23 15:00 26.20291 127.63289 18 ft 8 kts 77°